Погода в Кызылжаре

Погода в Кызылжаре : погода сейчас, прогноз погоды и архив. Всё, что Вы хотите узнать о погоде в Кызылжаре!

Поиск расширенной информации на нашем сайте:

Другие новости

Новости СМИ2

Главная страница сайта

Новости сайта

03.07.2017

Напоминаем, что на нашем специализированном сайте Метеоцентр.Азия вы можете получить высокодетализированные автоматические прогнозы погоды по пунктам России, СНГ и мира в авиационном формате (включающие направление и скорость ветра, видимость, явления погоды, количество и форму облачности, нижнюю и верхнюю границу облачности).


Погода в Кызылжаре - сегодня

Время (UTC), дата Ветер
(°,м/с) 
Видим.   Явления Облачность Т
(°С)
Тd
(°С)
f(%) Тe
(°С)
Pmin
(гПа)
dP
(гПа)
Po
(мм)
O2
(г/м3)
Тmin Tmax R s Состояние
почвы
18 18.01.18 070 (В) н/о    5/0 верхняя 
[Ci fib]
-20.6 -23.7 76 -23  1033.9  -0.9  739  324    -13.2       
21 18.01.18 070 (В) н/о    6/0 верхняя 
[Ci fib]
-21.8 -24.9 76 -25  1033.6  -0.7  738  325           
00 19.01.18 080 (В) н/о    6/0 верхняя 
[Ci fib]
-21.9 -25.1 75 -25  1032.8  -1.1  738  325           
03 19.01.18 080 (В) 20000 м    9/9 2000 м средняя 
[Ac und]
-19.5 -22.4 78 -22  1032.6  0.4  738  322  -21.9      19  равномерный
сухой снег
100% 
06 19.01.18 070 (В) 20000 м    3/0 верхняя 
[Ci fib]
-13.9 -17.5 74 -16  1032.5  1.2  739  315  -21.9         
09 19.01.18 090 (В) 20000 м    ясно 
-11.2 -15.2 72 -13  1031.7  -0.4  738  312           
12 19.01.18 080 (В) 20000 м    ясно 
-14.2 -17 79 -16  1033  0.9  739  315           
15 19.01.18 080 (В) н/о    ясно 
-17.9 -20.7 79 -20  1034.7  1.3  740  321    -11.2       
18 19.01.18 050 (СВ) н/о    ясно 
-18.3 -20.8 81 -22  1034.4  -0.5  739  321    -11.2       
21 19.01.18 060 (СВ) н/о    ясно 
-18.6 -20.9 82 -23  1035.1  0.8  740  321           
00 20.01.18 060 (СВ) н/о    ясно 
-18.4 -20.4 84 -21  1034.6  -0.5  740  321           
03 20.01.18 060 (СВ) 20000 м    9/9 2000 м средняя 
[Ac trans]
-15.6 -17.7 84 -18  1034.4  0.4  740  318  -19.5      19  равномерный
сухой снег
100% 
06 20.01.18 090 (В) 20000 м    3/0 верхняя 
[Ci fib]
-14.9 -17.6 80 -19  1034  -0.4  740  317  -19.5         
09 20.01.18 080 (В) 20000 м    ясно 
-11.3 -14.2 79 -14  1032.7  -0.7  739  312           
12 20.01.18 080 (В) 20000 м    1/1 2000 м средняя 
[Ac lent]
-13.6 -16 82 -17  1033  -0.3  739  315           
15 20.01.18 080 (В) н/о    3/3 2000 м средняя 
[Ac lent]
-15.5 -17.7 83 -19  1032.5  -1.1  738  317    -11       
18 20.01.18 070 (В) н/о    ясно 
-16.3 -18.7 82 -20  1032.2  -0.5  738  318    -11       
21 20.01.18 080 (В) н/о    ясно 
-15.2 -17.6 82 -19  1032.1  0.1  738  316           
00 21.01.18 070 (В) н/о    ясно 
-13.3 -15.9 81 -17  1030.3  -1.9  737  314           
03 21.01.18 090 (В) 20000 м    9/9 2000 м средняя 
[Ac trans]
-13.7 -16.1 82 -17  1030.8  0.5  737  314        19  равномерный
сухой снег
100% 
06 21.01.18 090 (В) 20000 м    8/8 2000 м средняя 
[Ac trans]
-13.2 -16.1 79 -17  1030.9  0.3  738  314  -16.3         
09 21.01.18 070 (В) 20000 м    8/8 2000 м средняя 
[Ac trans]
-10.5 -13.3 80 -12  1029.8  -0.8  737  310           
12 21.01.18 060 (СВ) 20000 м    9/9 2000 м средняя 
[Ac trans]
-9.4 -11.9 82 -13  1029.5  -0.1  737  309           
15 21.01.18 070 (В) н/о    9/9 2000 м средняя 
[Ac trans]
-9.2 -11.7 82 -13  1029.7  0.4  737  309    -9       
18 21.01.18 070 (В) н/о    5/5 2000 м средняя 
[Ac trans]
-10.8 -12.8 85 -14  1030.5  0.5  738  311    -9       
Время (UTC), дата Ветер
(°,м/с) 
Видим.   Явления Облачность Т
(°С)
Тd
(°С)
f(%) Тe
(°С)
Pmin
(гПа)
dP
(гПа)
Po
(мм)
O2
(г/м3)
Тmin Tmax R s Состояние
почвы

Для получения пояснительной информации подведите курсор к названию столбца.

ПОГОДА в Кызылжаре - архив

Всё, что Вы хотите узнать о погоде в Кызылжаре - удобно и подробно!

Выберите нужную дату (начиная с 1 января 2015* года) и нажмите кнопку "Найти".
Будут отображены архивные сводки погоды по пункту Кызылжар, начиная с указанной даты.


Отображать данные в формате CSV (для использования в таблицах Excel)


Внимание! Наш архив погоды предназначен исключительно для личного некоммерческого использования в познавательных целях. Если Вам необходимы официальные справки о состоянии погоды (для производственных, юридических, коммерческих и т.п. целей), обращайтесь в органы Росгидромета.

*Примечание: данная дата относится к архиву по метеостанциям СССР (Россия, СНГ, Балтия).
Архив по метеостанциям Зарубежной Европы и Азии (кроме Китая) хранится 10 дней, по другим регионам земного шара (Китай, Африка, Америка, Австралия, Океания) - 1 день.

Кызылжар - район местоположения метеостанции


Название, широта, долгота, высота метеостанции:
Кызылжар 48.3°ш. 69.6°д. 361 м над ур. моря [Казахстан]

Дополнительная информация

В oтличие oт бoльшинства пoгoдных сайтoв мы публикуем пoдрoбную метеoинфoрмацию в детальнoм прoфессиoнальнoм фoрмате.

Характеристики температуры и влажнoсти вoздуха измеряются на высoте 2 м в тени вдали oт зданий и деревьев.
Скoрoсть ветра измеряется на высoте 10 м (на урoвне рoста челoвека скoрoсть ветра ниже в 1.5-2 раза). Если метеoстанция нахoдится в гoрoде или в лесу, тo скoрoсть ветра занижена на 2-4 м/с пo сравнению с oткрытым местoм. Скoрoсть ветра над акватoриями крупных рек и oзёр, а также на вершинах хoлмoв на 2-5 м/с выше, чем в oбычных услoвиях.
Атмoсфернoе давление в разных тoчках местнoсти мoжет значительнo oтличаться oт давления на метеoстанции, в зависимoсти oт услoвий рельефа (при пoдъёме на 10 м давление пoнижается примернo на 1 мм рт.ст.).